Regional Weather Roundup
Issued by NWS Wilmington, NC

Home | Current Version | Previous Version | Text Only | Print | Product List | Glossary On
Versions: 1 2 3 4 5 6 7 8 9 10 11 12 13 14 15 16 17 18 19 20 21 22 23 24 25 26 27 28 29 30 31 32 33 34 35 36 37 38 39 40 41 42 43 44 45 46 47 48 49 50
154
ASUS42 KILM 130413
RWRILM
RWRILM
REGIONAL HOURLY WEATHER ROUNDUP
NATIONAL WEATHER SERVICE WILMINGTON NC
1100 PM EST FRI FEB 12 2016

NOTE: "FAIR" INDICATES FEW OR NO CLOUDS BELOW 12,000 FEET WITH NO
SIGNIFICANT WEATHER AND/OR OBSTRUCTIONS TO VISIBILITY.

...............WFO WILMINGTON COUNTY WARNING AREA...............

......COASTAL NC AND SC COUNTIES......

CITY           SKY/WX    TMP DP  RH WIND       PRES   REMARKS
WILMINGTON     CLEAR     31  29  92 NW6       30.05F WCI  25
N MYRTLE BEACH CLEAR     30  27  88 N3        30.04F
MYRTLE BEACH   CLEAR     36  23  60 N8        30.06F WCI  29

......INLAND NC AND SC COUNTIES.......

CITY           SKY/WX    TMP DP  RH WIND       PRES   REMARKS
LUMBERTON      PTCLDY    32  29  88 CALM      30.04F
ELIZABETHTOWN  CLOUDY    32  31  96 CALM      30.05F
WHITEVILLE     PTCLDY    32  29  90 CALM      30.04F
FLORENCE       CLEAR     29  27  92 N6        30.08R WCI  23
DARLINGTON     CLEAR     28  25  86 S5        30.07S WCI  23
KINGSTREE      FAIR      32  28  86 CALM      30.05S
HARTSVILLE     FAIR      30  28  93 CALM      30.05F
BENNETTSVILLE  FAIR      32  32 100 CALM      30.06S FOG
CONWAY         NOT AVBL
GEORGETOWN     FAIR      32  32 100 CALM      30.06S
MARION         FAIR      32  28  86 CALM      30.07R

....................REST OF NORTH CAROLINA......................

.........EASTERN NC.........

CITY           SKY/WX    TMP DP  RH WIND       PRES   REMARKS
CAPE HATTERAS  CLOUDY    35  33  92 NW8       30.00F WCI  29
JACKSONVILLE   CLOUDY    30  27  86 CALM      30.06F
MOREHEAD CITY  CLOUDY    33  32  96 W10       30.04S FOG     WCI  25
KENANSVILLE    CLOUDY    31  31 100 CALM      30.06F FOG
NEW BERN       CLOUDY    32  30  92 W7        30.05F FOG     WCI  26
ELIZABETH CITY CLEAR     25  23  92 W7        30.01F WCI  17

.........CENTRAL NC.........

CITY           SKY/WX    TMP DP  RH WIND       PRES   REMARKS
RALEIGH DURHAM MOCLDY    30  22  72 SW7       30.03F WCI  23
ROCKY MOUNT    CLOUDY    30  25  81 SW3       30.04F
ROANOKE RAPIDS NOT AVBL
FAYETTEVILLE   CLOUDY    32  31  96 CALM      30.03F FOG
HOFFMAN        PTCLDY    30  29  96 SW2       30.03F FOG

.........WESTERN NC.........

CITY           SKY/WX    TMP DP  RH WIND       PRES   REMARKS
CHARLOTTE      PTCLDY    34  25  69 NW5       30.05R WCI  30
GREENSBORO     CLOUDY    34  21  59 NW5       30.00S WCI  30
HICKORY        NOT AVBL
BOONE          NOT AVBL
ASHEVILLE      NOT AVBL

.....................REST OF SOUTH CAROLINA.....................

.........EASTERN SC.........

CITY           SKY/WX    TMP DP  RH WIND       PRES   REMARKS
CHARLESTON     PTCLDY    41  35  79 CALM      30.05S
BEAUFORT MCAS  CLEAR     44  42  93 NW3       30.07R FOG
HILTON HEAD    CLEAR     48  48 100 CALM      30.07S

.........CENTRAL SC.........

CITY           SKY/WX    TMP DP  RH WIND       PRES   REMARKS
COLUMBIA       CLEAR     38  31  76 N3        30.07R
ORANGEBURG     CLEAR     38  35  89 CALM      30.07R
SUMTER SHAW    CLEAR     35  28  75 N9        30.05R WCI  28

.........WESTERN SC.........

CITY           SKY/WX    TMP DP  RH WIND       PRES   REMARKS
GREENVILLE     NOT AVBL
ROCK HILL      CLEAR     32  27  81 NE5       30.05R WCI  27
ANDERSON       CLEAR     42  26  53 W10G18    30.10R
CLEMSON        NOT AVBL
GREENWOOD      CLEAR     44  27  51 NW9       30.09R


...................COASTAL AND OFFSHORE REPORTS..................

................LOCAL PIERS AND NC RESERVE................


STATION/POSITION TIME  SKY/WX   TEMP    WIND        PRES    VSBY
                                AIR SEA DIR/SP/G
                 (UTC)          (F)     (DEG/KT/KT) (MB)    (MI)
JOHNY MRCER PIER 0300            34 51              1016.9F
NC RESRV MASNBRO NOT AVBL
OCEAN CREST PIER NOT AVBL
SPRINGMAID  PIER 0300            37 49              1017.2F


................COASTAL AND OFFSHORE BUOYS................


STATION/POSITION TIME  SKY/WX   TEMP    WIND        PRES    VSBY
                                AIR SEA DIR/SP/G
                 (UTC)          (F)     (DEG/KT/KT) (MB)    (MI)
DIMNDSHOAL 41025 0350            42 71  320/ 17/ 23 1015.4R
WVE H/P(F/S)=  4/ 8 SWL H/P/D(F/S/D)=  3/ 70/ 8

CAPE LOOKOUT     NOT AVBL
ONSLOW BAY 41036 NOT AVBL
ONSLOW BAY 41064 0308            39 63              1016.2R
ONSLOW BAY 41159 0325               63                N/A
WVE H/P(F/S)=  4/ 7

5SE WRITBC 41038 0308            38 51  310/ 14/ 17 1018.0F
MASNBO INL 41110 0306               51                N/A
WVE H/P(F/S)=  3/ 6

WILM HARBR 41108 0326               51                N/A
WVE H/P(F/S)=  3/ 7

27SE WRITB 41037 NOT AVBL
FRYING PAN 41013 0300            45 52  320/ 16/ 19 1017.5S
SUNST NRSH 41024 NOT AVBL
CAPRS NRSH 41029 0308            47      40/  6/ 10 1017.3R
EDISTO     41004 0350            53 68  350/  8/ 10 1017.0F
WVE H/P(F/S)=  4/ 7 SWL H/P/D(F/S/D)=  3/ 7



..........OFFSHORE BUOYS BEYOND 100 NM OFFSHORE...........
.....IN A TRIANGLE---HAT TO BERMUDA TO BAHAMAS TO HAT.....


STATION/POSITION TIME  SKY/WX   TEMP    WIND        PRES    VSBY
                                AIR SEA DIR/SP/G
                 (UTC)          (F)     (DEG/KT/KT) (MB)    (MI)
150E HAT   41001 0300            57 69  330/ 12/ 17 1011.5S
W BERMUDA  41048 0350            68 69  200/ 29/ 33 1016.2F
WVE H/P(F/S)= 10/ 7 SWL H/P/D(F/S/D)=  2/ 40/12

ATLANTIC S 41049 0350            72 75  120/ 14/ 17 1021.1F
WVE H/P(F/S)=  7/11 SWL H/P/D(F/S/D)=  7/290/11

E BAHAMAS  41046 0350            75 79  120/ 12/ 14 1019.8F
WVE H/P(F/S)=  8/ 9 SWL H/P/D(F/S/D)=  7/ 30/ 9

NE BAHAMAS 41047 0350            71 75  210/ 10/ 16 1022.2F
WVE H/P(F/S)=  5/ 8 SWL H/P/D(F/S/D)=  5/320/ 8

120E CANVRL41010 0320            72 72              1020.5F

END




USA.gov is the U.S. government's official web portal to all federal, state and local government web resources and services.